sat.trackr.live / text

‹ back to catalog

STARLINK-32225

NORAD 62036 · 2024-216E

PAYLOAD ACTIVE UNKNOWN

§ Identity

Operator
Country
US
Launch date
2024-11-21
Launch site
AFETR
Launch vehicle
Mass (kg)
RCS (m²)

Purposes: comms

External: N2YO · Heavens-Above · Gunter

§ Orbital elements

Epoch: 2026-05-25T03:01:26.793984Z

Period
94.27 min
Inclination
43.0009°
Eccentricity
0.0001351
Mean motion
15.27590427 rev/d
Perigee alt
482.1 km
Apogee alt
483.9 km
Semi-major
6,861.2 km
B*
4.7850e-4
RAAN
184.8202°
Arg perigee
260.5188°
Mean anomaly
99.5511°
Rev number
8,563

§ Raw data

STARLINK-322251 62036U 24216E   26145.12600456  .00012932  00000+0  47850-3 0  99972 62036  43.0009 184.8202 0001351 260.5188  99.5511 15.27590427 85634

JSON: /api/v1/satellites/62036 · /tle

For live sub-satellite position, see the globe view (requires WebGL).

§ Visibility from observer

Set your observer location to see the next 7 days of passes ≥ 10°. The values pass through the URL so the page stays shareable.

No JS? Fill the form by hand. The geolocation button needs JavaScript.